Location: *
(13.2257°S, 48.7193°W)
Time: 10:19:26
(UTC+00:00)

NATO 3D Rocket - Pass Details

Date: 13 February 2026
Orbit: 670 x 2292 km, 21.5° (Epoch: 11 March)

Event Time Altitude Azimuth Distance (km) Brightness Sun altitude
Exits shadow 08:24:43 12° 256° (WSW) 1,987 5.1 -12.1°
Maximum altitude 08:29:06 75° 340° (NNW) 691 3.2 -11.1°
Drops below altitude 10° 08:33:57 10° 66° (ENE) 2,165 6.6 -10.0°
Sets 08:36:29 0° 67° (ENE) 3,187 7.6 -9.4°
